Terug naar catalogus

KUIPER-00533

ActiefCommunicatieLEO
NORAD 69605·PAYLOAD·🇺🇸 United States

Gelanceerd Jun 17, 2026 vanaf Guiana Space Centre

Loading…

Volgende Passages (komende 24 uur)

TLE

VersSource: CelesTrak SupGP

Epoch: Sep 14, 2026, 23:22 UTC

1 69605C 26140P   26257.97370370  .00001419  00000+0  18579-3 0  2571
2 69605  51.9019 336.1422 0000419  81.0250 319.4323 14.79920334    12

Volg KUIPER-00533 in realtime met AllMySat

Download on the App Store